TimeCDT,TemperatureF,Dew PointF,Humidity,Sea Level PressureIn,VisibilityMPH,Wind Direction,Wind SpeedMPH,Gust SpeedMPH,PrecipitationIn,Events,Conditions,WindDirDegrees,DateUTC
12:56 AM,62.1,52.0,70,29.85,10.0,North,4.6,-,N/A,,Clear,350,2012-10-19 05:56:00
1:56 AM,60.1,50.0,69,29.85,10.0,NNW,4.6,-,N/A,,Scattered Clouds,340,2012-10-19 06:56:00
2:56 AM,57.0,50.0,77,29.83,10.0,North,3.5,-,N/A,,Clear,350,2012-10-19 07:56:00
3:56 AM,55.9,48.9,77,29.83,10.0,NNW,4.6,-,N/A,,Clear,340,2012-10-19 08:56:00
4:56 AM,57.0,46.0,67,29.84,10.0,North,5.8,-,N/A,,Clear,350,2012-10-19 09:56:00
5:56 AM,52.0,46.9,83,29.85,10.0,Calm,Calm,-,N/A,,Clear,0,2012-10-19 10:56:00
6:56 AM,53.1,46.9,80,29.86,10.0,North,4.6,-,N/A,,Partly Cloudy,360,2012-10-19 11:56:00
7:56 AM,59.0,50.0,72,29.87,10.0,NNW,4.6,-,N/A,,Partly Cloudy,340,2012-10-19 12:56:00
8:56 AM,66.9,46.9,49,29.89,10.0,Calm,Calm,-,N/A,,Partly Cloudy,0,2012-10-19 13:56:00
9:56 AM,72.0,48.0,43,29.91,10.0,WNW,3.5,-,N/A,,Clear,300,2012-10-19 14:56:00
10:56 AM,75.0,45.0,34,29.90,10.0,NNW,5.8,-,N/A,,Clear,340,2012-10-19 15:56:00
11:56 AM,77.0,42.1,29,29.89,10.0,West,8.1,-,N/A,,Clear,270,2012-10-19 16:56:00
12:56 PM,78.1,44.1,30,29.86,10.0,WSW,10.4,-,N/A,,Clear,240,2012-10-19 17:56:00
1:56 PM,79.0,44.1,29,29.83,10.0,WSW,9.2,-,N/A,,Clear,240,2012-10-19 18:56:00
2:56 PM,80.1,44.1,28,29.81,10.0,West,9.2,-,N/A,,Clear,260,2012-10-19 19:56:00
3:56 PM,80.1,37.9,22,29.79,10.0,West,10.4,21.9,N/A,,Clear,260,2012-10-19 20:56:00
4:56 PM,78.1,41.0,27,29.79,10.0,West,8.1,-,N/A,,Clear,270,2012-10-19 21:56:00
5:56 PM,71.1,42.1,35,29.81,10.0,West,6.9,-,N/A,,Clear,260,2012-10-19 22:56:00
6:56 PM,68.0,46.0,45,29.81,10.0,WSW,5.8,-,N/A,,Clear,250,2012-10-19 23:56:00
7:56 PM,66.9,48.9,52,29.84,10.0,WSW,6.9,-,N/A,,Clear,240,2012-10-20 00:56:00
8:56 PM,62.1,48.9,62,29.85,10.0,WSW,5.8,-,N/A,,Clear,250,2012-10-20 01:56:00
9:56 PM,60.1,48.9,67,29.86,10.0,West,4.6,-,N/A,,Clear,280,2012-10-20 02:56:00
10:56 PM,59.0,46.9,64,29.87,10.0,West,4.6,-,N/A,,Clear,270,2012-10-20 03:56:00
11:56 PM,57.0,46.9,69,29.86,10.0,NW,8.1,-,N/A,,Clear,310,2012-10-20 04:56:00